| time (UTC) | temp F | wind direction | speed MPH | gust MPH | rain 1hr in | rain 24hr in | rain mn in | humidity % | barometer mb |
| 20260831072915 | 71 | 130 | 0.0 | 1.0 | 0.00 | 0.00 | 0.00 | 95 | 1010.8 |
| 20260831072411 | 71 | 126 | 0.0 | 1.0 | 0.00 | 0.00 | 0.00 | 95 | 1010.8 |
| 20260831071908 | 71 | 100 | 0.0 | 1.0 | 0.00 | 0.00 | 0.00 | 95 | 1011.1 |
| 20260831071406 | 71 | 105 | 0.0 | 1.0 | 0.00 | 0.00 | 0.00 | 94 | 1010.9 |
| 20260831070901 | 71 | 117 | 0.0 | 2.0 | 0.00 | 0.00 | 0.00 | 94 | 1011.0 |
| 20260831070400 | 71 | 125 | 1.0 | 2.0 | 0.00 | 0.00 | 0.00 | 94 | 1010.9 |
| 20260831065859 | 71 | 92 | 0.0 | 1.0 | 0.00 | 0.00 | 0.00 | 94 | 1011.0 |
| 20260831065357 | 71 | 81 | 0.0 | 1.0 | 0.00 | 0.00 | 0.00 | 94 | 1011.0 |
| 20260831064853 | 72 | 100 | 0.0 | 2.0 | 0.00 | 0.00 | 0.00 | 94 | 1011.2 |
| 20260831064348 | 72 | 103 | 0.0 | 0.0 | 0.00 | 0.00 | 0.00 | 93 | 1011.4 |
| 20260831063843 | 72 | 113 | 1.0 | 1.0 | 0.00 | 0.00 | 0.00 | 93 | 1011.3 |
| 20260831063339 | 72 | 110 | 1.0 | 2.0 | 0.00 | 0.00 | 0.00 | 93 | 1011.3 |
| 20260831062838 | 72 | 106 | 1.0 | 2.0 | 0.00 | 0.00 | 0.00 | 93 | 1011.7 |
| 20260831062333 | 72 | 111 | 0.0 | 1.0 | 0.00 | 0.00 | 0.00 | 93 | 1011.5 |
| 20260831061832 | 72 | 170 | 1.0 | 1.0 | 0.00 | 0.00 | 0.00 | 93 | 1011.6 |
| 20260831061331 | 72 | 144 | 0.0 | 0.0 | 0.00 | 0.00 | 0.00 | 93 | 1011.5 |
| 20260831060828 | 72 | 63 | 0.0 | 0.0 | 0.00 | 0.00 | 0.00 | 92 | 1011.3 |
| 20260831060322 | 72 | 58 | 0.0 | 3.0 | 0.00 | 0.00 | 0.00 | 92 | 1011.5 |
| 20260831055821 | 72 | 79 | 1.0 | 2.0 | 0.00 | 0.00 | 0.00 | 92 | 1011.7 |
| 20260831055317 | 72 | 122 | 1.0 | 1.0 | 0.00 | 0.00 | 0.00 | 92 | 1011.7 |
| 20260831054812 | 72 | 89 | 0.0 | 1.0 | 0.00 | 0.00 | 0.00 | 92 | 1011.8 |
| 20260831054307 | 72 | 117 | 1.0 | 1.0 | 0.00 | 0.00 | 0.00 | 92 | 1012.0 |
| 20260831053806 | 72 | 112 | 1.0 | 1.0 | 0.00 | 0.00 | 0.00 | 91 | 1012.1 |
| 20260831053305 | 73 | 100 | 0.0 | 3.0 | 0.00 | 0.00 | 0.00 | 91 | 1012.2 |
| 20260831052759 | 73 | 111 | 0.0 | 6.0 | 0.00 | 0.00 | 0.00 | 91 | 1012.3 |
| 20260831052258 | 73 | 91 | 1.0 | 3.0 | 0.00 | 0.00 | 0.00 | 91 | 1012.2 |
| 20260831051757 | 73 | 112 | 2.0 | 3.0 | 0.00 | 0.00 | 0.00 | 90 | 1012.4 |
| 20260831051256 | 73 | 125 | 0.0 | 1.0 | 0.00 | 0.00 | 0.00 | 90 | 1012.5 |
| 20260831050751 | 73 | 124 | 3.0 | 5.0 | 0.00 | 0.00 | 0.00 | 90 | 1012.4 |
| 20260831050250 | 73 | 165 | 0.0 | 2.0 | 0.00 | 0.00 | 0.00 | 90 | 1012.5 |
| 20260831045744 | 73 | 152 | 2.0 | 3.0 | 0.00 | 0.00 | 0.00 | 90 | 1012.5 |
| 20260831045239 | 73 | 114 | 0.0 | 2.0 | 0.00 | 0.00 | 0.00 | 89 | 1012.4 |
| 20260831044733 | 73 | 133 | 3.0 | 3.0 | 0.00 | 0.00 | 0.00 | 89 | 1012.5 |
| 20260831044229 | 73 | 127 | 0.0 | 5.0 | 0.00 | 0.00 | 0.00 | 89 | 1012.2 |
| 20260831043724 | 73 | 83 | 2.0 | 3.0 | 0.00 | 0.00 | 0.00 | 89 | 1012.5 |
| 20260831043219 | 73 | 118 | 0.0 | 1.0 | 0.00 | 0.00 | 0.00 | 89 | 1012.3 |
| 20260831042718 | 74 | 124 | 1.0 | 3.0 | 0.00 | 0.00 | 0.00 | 88 | 1012.6 |
| 20260831042213 | 74 | 121 | 1.0 | 3.0 | 0.00 | 0.00 | 0.00 | 88 | 1012.6 |
| 20260831041708 | 74 | 113 | 1.0 | 2.0 | 0.00 | 0.00 | 0.00 | 88 | 1012.4 |
| 20260831041203 | 74 | 128 | 3.0 | 6.0 | 0.00 | 0.00 | 0.00 | 88 | 1012.5 |
| 20260831040657 | 74 | 137 | 3.0 | 8.0 | 0.00 | 0.00 | 0.00 | 88 | 1012.5 |
| 20260831040156 | 74 | 139 | 1.0 | 3.0 | 0.00 | 0.00 | 0.00 | 88 | 1012.3 |
| 20260831035655 | 74 | 106 | 2.0 | 3.0 | 0.00 | 0.00 | 0.00 | 88 | 1012.3 |
| 20260831035150 | 74 | 82 | 1.0 | 5.0 | 0.00 | 0.00 | 0.00 | 88 | 1012.3 |
| 20260831034648 | 74 | 100 | 2.0 | 5.0 | 0.00 | 0.00 | 0.00 | 88 | 1012.6 |
| 20260831034144 | 74 | 116 | 1.0 | 3.0 | 0.00 | 0.00 | 0.00 | 87 | 1012.4 |
| 20260831033640 | 74 | 160 | 3.0 | 5.0 | 0.00 | 0.00 | 0.00 | 87 | 1012.6 |
| 20260831033134 | 74 | 116 | 0.0 | 5.0 | 0.00 | 0.00 | 0.00 | 87 | 1012.3 |
| 20260831032634 | 75 | 185 | 1.0 | 2.0 | 0.00 | 0.00 | 0.00 | 87 | 1012.6 |
| 20260831032130 | 75 | 101 | 3.0 | 9.0 | 0.00 | 0.00 | 0.00 | 87 | 1012.6 |
| 20260831031630 | 75 | 111 | 1.0 | 3.0 | 0.00 | 0.00 | 0.00 | 86 | 1012.3 |
| 20260831031130 | 75 | 163 | 1.0 | 2.0 | 0.00 | 0.00 | 0.00 | 86 | 1012.3 |
| 20260831030628 | 75 | 111 | 2.0 | 3.0 | 0.00 | 0.00 | 0.00 | 86 | 1012.4 |
| 20260831030128 | 75 | 75 | 3.0 | 5.0 | 0.00 | 0.00 | 0.00 | 85 | 1012.4 |
| 20260831025626 | 75 | 121 | 2.0 | 5.0 | 0.00 | 0.00 | 0.00 | 85 | 1012.5 |
| 20260831025121 | 75 | 123 | 1.0 | 5.0 | 0.00 | 0.00 | 0.00 | 85 | 1012.5 |
| 20260831024618 | 76 | 92 | 1.0 | 5.0 | 0.00 | 0.00 | 0.00 | 84 | 1012.3 |
| 20260831024116 | 76 | 70 | 1.0 | 3.0 | 0.00 | 0.00 | 0.00 | 84 | 1012.5 |
| 20260831023615 | 76 | 63 | 2.0 | 3.0 | 0.00 | 0.00 | 0.00 | 84 | 1012.4 |
| 20260831023114 | 76 | 143 | 3.0 | 7.0 | 0.00 | 0.00 | 0.00 | 83 | 1012.5 |
| 20260831022609 | 76 | 78 | 0.0 | 5.0 | 0.00 | 0.00 | 0.00 | 83 | 1012.4 |
| 20260831022104 | 76 | 153 | 4.0 | 7.0 | 0.00 | 0.00 | 0.00 | 83 | 1012.5 |
| 20260831021603 | 77 | 133 | 3.0 | 5.0 | 0.00 | 0.00 | 0.00 | 82 | 1012.4 |
| 20260831021059 | 77 | 120 | 1.0 | 7.0 | 0.00 | 0.00 | 0.00 | 82 | 1012.4 |
| 20260831020554 | 77 | 158 | 0.0 | 3.0 | 0.00 | 0.00 | 0.00 | 81 | 1012.5 |
| 20260831020049 | 77 | 137 | 2.0 | 6.0 | 0.00 | 0.00 | 0.00 | 80 | 1012.5 |
| 20260831015545 | 77 | 171 | 2.0 | 6.0 | 0.00 | 0.00 | 0.00 | 79 | 1012.6 |
| 20260831015039 | 78 | 104 | 2.0 | 6.0 | 0.00 | 0.00 | 0.00 | 79 | 1012.7 |
| 20260831014534 | 78 | 169 | 4.0 | 7.0 | 0.00 | 0.00 | 0.00 | 78 | 1012.5 |
| 20260831014030 | 78 | 99 | 0.0 | 5.0 | 0.00 | 0.00 | 0.00 | 78 | 1012.2 |
| 20260831013525 | 79 | 137 | 2.0 | 7.0 | 0.00 | 0.00 | 0.00 | 76 | 1012.5 |
| 20260831013020 | 79 | 110 | 1.0 | 5.0 | 0.00 | 0.00 | 0.00 | 75 | 1012.2 |
| 20260831012514 | 79 | 114 | 2.0 | 8.0 | 0.00 | 0.00 | 0.00 | 74 | 1012.2 |
| 20260831012015 | 80 | 108 | 1.0 | 5.0 | 0.00 | 0.00 | 0.00 | 74 | 1011.8 |
| 20260831011509 | 80 | 116 | 3.0 | 3.0 | 0.00 | 0.00 | 0.00 | 74 | 1012.2 |
| 20260831011005 | 80 | 107 | 3.0 | 10.0 | 0.00 | 0.00 | 0.00 | 73 | 1012.2 |
| 20260831010504 | 81 | 92 | 5.0 | 9.0 | 0.00 | 0.00 | 0.00 | 73 | 1012.1 |
| 20260831010001 | 81 | 136 | 0.0 | 7.0 | 0.00 | 0.00 | 0.00 | 74 | 1012.0 |
| 20260831005456 | 81 | 102 | 1.0 | 2.0 | 0.00 | 0.00 | 0.00 | 73 | 1012.0 |
| 20260831004955 | 82 | 112 | 2.0 | 2.0 | 0.00 | 0.00 | 0.00 | 73 | 1011.8 |
| 20260831004452 | 82 | 128 | 2.0 | 5.0 | 0.00 | 0.00 | 0.00 | 72 | 1011.7 |
| 20260831003948 | 82 | 148 | 1.0 | 6.0 | 0.00 | 0.00 | 0.00 | 72 | 1011.8 |
| 20260831003444 | 82 | 126 | 0.0 | 2.0 | 0.00 | 0.00 | 0.00 | 72 | 1011.7 |
| 20260831002943 | 82 | 124 | 0.0 | 2.0 | 0.00 | 0.00 | 0.00 | 72 | 1011.6 |
| 20260831002442 | 83 | 113 | 1.0 | 5.0 | 0.00 | 0.00 | 0.00 | 72 | 1011.5 |
| 20260831001938 | 83 | 87 | 0.0 | 2.0 | 0.00 | 0.00 | 0.00 | 72 | 1011.3 |
| 20260831001433 | 83 | 114 | 3.0 | 3.0 | 0.00 | 0.00 | 0.00 | 71 | 1011.3 |
| 20260831000930 | 83 | 118 | 1.0 | 8.0 | 0.00 | 0.00 | 0.00 | 71 | 1011.4 |
| 20260831000426 | 84 | 112 | 2.0 | 7.0 | 0.00 | 0.00 | 0.00 | 71 | 1011.4 |
| 20260830235923 | 84 | 134 | 1.0 | 6.0 | 0.00 | 0.00 | 0.00 | 71 | 1011.2 |
| 20260830235419 | 84 | 104 | 1.0 | 2.0 | 0.00 | 0.00 | 0.00 | 71 | 1011.4 |
| 20260830234914 | 84 | 116 | 1.0 | 3.0 | 0.00 | 0.00 | 0.00 | 71 | 1011.6 |
| 20260830234409 | 84 | 148 | 2.0 | 3.0 | 0.00 | 0.00 | 0.00 | 72 | 1011.4 |
| 20260830233905 | 85 | 105 | 3.0 | 5.0 | 0.00 | 0.00 | 0.00 | 72 | 1011.4 |
| 20260830233400 | 85 | 147 | 2.0 | 7.0 | 0.00 | 0.00 | 0.00 | 72 | 1011.5 |
| 20260830232855 | 84 | 107 | 2.0 | 6.0 | 0.00 | 0.00 | 0.00 | 74 | 1011.3 |
| 20260830232351 | 84 | 180 | 4.0 | 6.0 | 0.00 | 0.00 | 0.00 | 77 | 1011.4 |
| 20260830231848 | 84 | 109 | 0.0 | 5.0 | 0.00 | 0.00 | 0.00 | 77 | 1011.4 |
| 20260830231343 | 84 | 108 | 0.0 | 6.0 | 0.00 | 0.00 | 0.00 | 77 | 1011.3 |
| 20260830230842 | 85 | 342 | 4.0 | 6.0 | 0.00 | 0.00 | 0.00 | 75 | 1011.5 |
| 20260830230337 | 85 | 205 | 2.0 | 5.0 | 0.00 | 0.00 | 0.00 | 75 | 1011.6 |
| 20260830225831 | 85 | 100 | 4.0 | 8.0 | 0.00 | 0.00 | 0.00 | 76 | 1011.5 |
| 20260830225326 | 84 | 327 | 0.0 | 1.0 | 0.00 | 0.00 | 0.00 | 76 | 1011.4 |
| 20260830224821 | 84 | 114 | 1.0 | 5.0 | 0.00 | 0.00 | 0.00 | 76 | 1011.4 |
| 20260830224315 | 84 | 303 | 1.0 | 3.0 | 0.00 | 0.00 | 0.00 | 77 | 1011.2 |
| 20260830223812 | 85 | 248 | 0.0 | 3.0 | 0.00 | 0.00 | 0.00 | 75 | 1011.1 |
| 20260830223308 | 85 | 30 | 2.0 | 6.0 | 0.00 | 0.00 | 0.00 | 76 | 1011.2 |
| 20260830222802 | 85 | 41 | 1.0 | 1.0 | 0.00 | 0.00 | 0.00 | 74 | 1011.1 |
| 20260830222257 | 84 | 171 | 0.0 | 5.0 | 0.00 | 0.00 | 0.00 | 76 | 1011.2 |
| 20260830221752 | 84 | 6 | 4.0 | 5.0 | 0.00 | 0.00 | 0.00 | 76 | 1011.1 |
| 20260830221249 | 83 | 103 | 4.0 | 7.0 | 0.00 | 0.00 | 0.00 | 77 | 1011.0 |
| 20260830220743 | 83 | 63 | 0.0 | 6.0 | 0.00 | 0.00 | 0.00 | 77 | 1011.2 |
| 20260830220243 | 84 | 6 | 4.0 | 8.0 | 0.00 | 0.00 | 0.00 | 76 | 1011.3 |
| 20260830215741 | 84 | 118 | 1.0 | 5.0 | 0.00 | 0.00 | 0.00 | 76 | 1011.2 |
| 20260830215236 | 84 | 34 | 5.0 | 6.0 | 0.00 | 0.00 | 0.00 | 74 | 1011.3 |
| 20260830214731 | 84 | 92 | 1.0 | 3.0 | 0.00 | 0.00 | 0.00 | 76 | 1011.0 |
| 20260830214226 | 83 | 160 | 2.0 | 3.0 | 0.00 | 0.00 | 0.00 | 76 | 1011.2 |
| 20260830213725 | 84 | 90 | 3.0 | 5.0 | 0.00 | 0.00 | 0.00 | 74 | 1011.4 |
| 20260830213220 | 86 | 158 | 1.0 | 2.0 | 0.00 | 0.00 | 0.00 | 73 | 1011.4 |
| 20260830212716 | 86 | 113 | 1.0 | 3.0 | 0.00 | 0.00 | 0.00 | 72 | 1011.6 |
| 20260830212211 | 85 | 51 | 3.0 | 5.0 | 0.00 | 0.00 | 0.00 | 73 | 1011.7 |
| 20260830211706 | 85 | 355 | 3.0 | 6.0 | 0.00 | 0.00 | 0.00 | 73 | 1011.6 |
| 20260830211205 | 84 | 172 | 0.0 | 8.0 | 0.00 | 0.00 | 0.00 | 74 | 1011.7 |
| 20260830210701 | 84 | 136 | 1.0 | 7.0 | 0.00 | 0.00 | 0.00 | 73 | 1011.6 |
| 20260830210200 | 85 | 184 | 1.0 | 6.0 | 0.00 | 0.00 | 0.00 | 72 | 1011.6 |
| 20260830205657 | 84 | 139 | 1.0 | 6.0 | 0.00 | 0.00 | 0.00 | 73 | 1011.7 |
| 20260830205152 | 84 | 161 | 1.0 | 2.0 | 0.00 | 0.00 | 0.00 | 75 | 1011.7 |
| 20260830204647 | 84 | 102 | 3.0 | 5.0 | 0.00 | 0.00 | 0.00 | 75 | 1011.8 |
| 20260830204145 | 84 | 109 | 2.0 | 5.0 | 0.00 | 0.00 | 0.00 | 74 | 1012.1 |
| 20260830203642 | 85 | 7 | 1.0 | 3.0 | 0.00 | 0.00 | 0.00 | 72 | 1012.0 |
| 20260830203137 | 84 | 103 | 2.0 | 3.0 | 0.00 | 0.00 | 0.00 | 73 | 1012.0 |
| 20260830202636 | 84 | 129 | 2.0 | 6.0 | 0.00 | 0.00 | 0.00 | 73 | 1012.1 |
| 20260830202132 | 85 | 132 | 3.0 | 7.0 | 0.00 | 0.00 | 0.00 | 73 | 1011.8 |
| 20260830201631 | 84 | 257 | 2.0 | 5.0 | 0.00 | 0.00 | 0.00 | 74 | 1012.0 |
| 20260830201127 | 83 | 214 | 2.0 | 11.0 | 0.00 | 0.00 | 0.00 | 77 | 1011.8 |
| 20260830200622 | 84 | 143 | 4.0 | 6.0 | 0.00 | 0.00 | 0.00 | 74 | 1011.8 |
| 20260830200121 | 84 | 319 | 1.0 | 5.0 | 0.00 | 0.00 | 0.00 | 74 | 1011.8 |
| 20260830195617 | 84 | 30 | 2.0 | 7.0 | 0.00 | 0.00 | 0.00 | 74 | 1011.7 |
| 20260830195114 | 84 | 31 | 3.0 | 9.0 | 0.00 | 0.00 | 0.00 | 74 | 1012.0 |
| 20260830194609 | 83 | 318 | 4.0 | 8.0 | 0.00 | 0.00 | 0.00 | 74 | 1012.0 |
| 20260830194108 | 84 | 153 | 1.0 | 9.0 | 0.00 | 0.00 | 0.00 | 74 | 1011.5 |
| 20260830193603 | 83 | 111 | 2.0 | 8.0 | 0.00 | 0.00 | 0.00 | 75 | 1011.8 |
| 20260830193058 | 83 | 110 | 2.0 | 7.0 | 0.00 | 0.00 | 0.00 | 75 | 1011.8 |
| 20260830192553 | 82 | 124 | 5.0 | 7.0 | 0.00 | 0.00 | 0.00 | 75 | 1011.8 |
| 20260830192053 | 83 | 109 | 1.0 | 7.0 | 0.00 | 0.00 | 0.00 | 76 | 1012.1 |
| 20260830191548 | 83 | 127 | 1.0 | 5.0 | 0.00 | 0.00 | 0.00 | 75 | 1012.2 |
| 20260830191038 | 82 | 143 | 1.0 | 2.0 | 0.00 | 0.00 | 0.00 | 77 | 1012.0 |
| 20260830190533 | 82 | 44 | 8.0 | 11.0 | 0.00 | 0.00 | 0.00 | 77 | 1012.3 |
| 20260830190028 | 82 | 176 | 0.0 | 5.0 | 0.00 | 0.00 | 0.00 | 78 | 1012.2 |
| 20260830185522 | 81 | 51 | 6.0 | 8.0 | 0.00 | 0.00 | 0.00 | 78 | 1012.5 |
| 20260830185018 | 80 | 129 | 2.0 | 5.0 | 0.00 | 0.00 | 0.00 | 80 | 1012.6 |
| 20260830184516 | 79 | 68 | 0.0 | 6.0 | 0.00 | 0.00 | 0.00 | 81 | 1012.7 |
| 20260830184005 | 79 | 153 | 3.0 | 13.0 | 0.00 | 0.00 | 0.00 | 81 | 1012.7 |
| 20260830183500 | 80 | 28 | 3.0 | 11.0 | 0.00 | 0.00 | 0.00 | 81 | 1012.7 |
| 20260830182955 | 80 | 104 | 5.0 | 8.0 | 0.00 | 0.00 | 0.00 | 81 | 1012.7 |
| 20260830182450 | 79 | 205 | 1.0 | 5.0 | 0.00 | 0.00 | 0.00 | 82 | 1012.8 |
| 20260830181946 | 79 | 115 | 3.0 | 8.0 | 0.00 | 0.00 | 0.00 | 82 | 1012.7 |
| 20260830181443 | 78 | 353 | 0.0 | 7.0 | 0.00 | 0.00 | 0.00 | 83 | 1012.9 |
| 20260830180937 | 78 | 104 | 3.0 | 9.0 | 0.00 | 0.00 | 0.00 | 83 | 1013.0 |
| 20260830180436 | 78 | 92 | 1.0 | 5.0 | 0.00 | 0.00 | 0.00 | 83 | 1013.0 |
| 20260830175935 | 78 | 117 | 2.0 | 8.0 | 0.00 | 0.00 | 0.00 | 83 | 1013.1 |
| 20260830175434 | 78 | 214 | 3.0 | 6.0 | 0.00 | 0.00 | 0.00 | 83 | 1013.1 |
| 20260830174925 | 78 | 155 | 3.0 | 3.0 | 0.00 | 0.00 | 0.00 | 83 | 1013.1 |
| 20260830174420 | 78 | 157 | 2.0 | 6.0 | 0.00 | 0.00 | 0.00 | 83 | 1013.3 |
| 20260830173915 | 78 | 101 | 8.0 | 9.0 | 0.00 | 0.00 | 0.00 | 83 | 1013.5 |
| 20260830173411 | 77 | 30 | 1.0 | 3.0 | 0.00 | 0.00 | 0.00 | 84 | 1013.5 |
| 20260830172906 | 77 | 158 | 2.0 | 5.0 | 0.00 | 0.00 | 0.00 | 84 | 1013.4 |
| 20260830172403 | 78 | 163 | 0.0 | 3.0 | 0.00 | 0.00 | 0.00 | 84 | 1013.4 |
| 20260830171858 | 78 | 135 | 2.0 | 5.0 | 0.00 | 0.00 | 0.00 | 84 | 1013.3 |
| 20260830171354 | 78 | 31 | 1.0 | 5.0 | 0.00 | 0.00 | 0.00 | 84 | 1013.1 |
| 20260830170848 | 78 | 252 | 1.0 | 2.0 | 0.00 | 0.00 | 0.00 | 84 | 1013.2 |
| 20260830170348 | 77 | 259 | 3.0 | 5.0 | 0.00 | 0.00 | 0.00 | 84 | 1013.1 |
| 20260830165846 | 77 | 101 | 1.0 | 7.0 | 0.00 | 0.00 | 0.00 | 85 | 1013.3 |
| 20260830165343 | 77 | 92 | 2.0 | 5.0 | 0.00 | 0.00 | 0.00 | 85 | 1013.3 |
| 20260830164839 | 77 | 1 | 0.0 | 5.0 | 0.00 | 0.00 | 0.00 | 85 | 1013.1 |
| 20260830164334 | 76 | 112 | 0.0 | 8.0 | 0.00 | 0.00 | 0.00 | 85 | 1013.2 |
| 20260830163831 | 76 | 262 | 3.0 | 5.0 | 0.00 | 0.00 | 0.00 | 85 | 1012.9 |
| 20260830163326 | 77 | 61 | 2.0 | 5.0 | 0.00 | 0.00 | 0.00 | 85 | 1012.8 |
| 20260830162821 | 77 | 335 | 2.0 | 6.0 | 0.00 | 0.00 | 0.00 | 84 | 1012.7 |
| 20260830162317 | 77 | 346 | 2.0 | 5.0 | 0.00 | 0.00 | 0.00 | 84 | 1012.7 |
| 20260830161812 | 77 | 134 | 0.0 | 8.0 | 0.00 | 0.00 | 0.00 | 85 | 1012.6 |
| 20260830161311 | 77 | 25 | 0.0 | 10.0 | 0.00 | 0.00 | 0.00 | 84 | 1012.7 |
| 20260830160806 | 76 | 304 | 0.0 | 2.0 | 0.00 | 0.00 | 0.00 | 86 | 1012.9 |
| 20260830160301 | 76 | 341 | 2.0 | 6.0 | 0.00 | 0.00 | 0.00 | 85 | 1012.7 |
| 20260830155757 | 76 | 12 | 1.0 | 7.0 | 0.00 | 0.00 | 0.00 | 85 | 1012.6 |
| 20260830155253 | 76 | 336 | 1.0 | 6.0 | 0.00 | 0.00 | 0.00 | 86 | 1012.6 |
| 20260830154753 | 76 | 82 | 2.0 | 6.0 | 0.00 | 0.00 | 0.00 | 86 | 1012.4 |
| 20260830154249 | 76 | 129 | 3.0 | 5.0 | 0.00 | 0.00 | 0.00 | 86 | 1012.6 |
| 20260830153746 | 76 | 315 | 4.0 | 7.0 | 0.00 | 0.00 | 0.00 | 85 | 1012.4 |
| 20260830153241 | 76 | 326 | 3.0 | 5.0 | 0.00 | 0.00 | 0.00 | 85 | 1012.4 |
| 20260830152739 | 76 | 228 | 1.0 | 3.0 | 0.00 | 0.00 | 0.00 | 85 | 1012.6 |
| 20260830152234 | 75 | 110 | 0.0 | 6.0 | 0.00 | 0.00 | 0.00 | 86 | 1012.6 |
| 20260830151733 | 75 | 116 | 2.0 | 2.0 | 0.00 | 0.00 | 0.00 | 87 | 1012.4 |
| 20260830151233 | 74 | 46 | 0.0 | 1.0 | 0.00 | 0.00 | 0.00 | 88 | 1012.1 |
| 20260830150728 | 74 | 68 | 0.0 | 2.0 | 0.00 | 0.00 | 0.00 | 88 | 1012.6 |
| 20260830150228 | 73 | 126 | 3.0 | 6.0 | 0.00 | 0.00 | 0.00 | 89 | 1012.4 |
| 20260830145723 | 73 | 333 | 2.0 | 3.0 | 0.00 | 0.00 | 0.00 | 89 | 1012.2 |
| 20260830145218 | 74 | 2 | 1.0 | 6.0 | 0.00 | 0.00 | 0.00 | 88 | 1012.3 |
| 20260830144713 | 73 | 50 | 2.0 | 3.0 | 0.00 | 0.00 | 0.00 | 89 | 1012.6 |
| 20260830144209 | 72 | 128 | 0.0 | 3.0 | 0.00 | 0.00 | 0.00 | 90 | 1012.5 |
| 20260830143705 | 72 | 147 | 0.0 | 2.0 | 0.00 | 0.00 | 0.00 | 91 | 1012.7 |
| 20260830143202 | 72 | 152 | 0.0 | 5.0 | 0.00 | 0.00 | 0.00 | 90 | 1012.3 |
| 20260830142658 | 72 | 339 | 2.0 | 3.0 | 0.00 | 0.00 | 0.00 | 90 | 1012.3 |
| 20260830142153 | 73 | 76 | 3.0 | 5.0 | 0.00 | 0.00 | 0.00 | 89 | 1012.7 |
| 20260830141648 | 73 | 127 | 0.0 | 3.0 | 0.00 | 0.00 | 0.00 | 89 | 1012.8 |
| 20260830141143 | 73 | 63 | 0.0 | 2.0 | 0.00 | 0.00 | 0.00 | 89 | 1013.0 |
| 20260830140638 | 71 | 55 | 0.0 | 5.0 | 0.00 | 0.00 | 0.00 | 91 | 1012.8 |
| 20260830140139 | 71 | 111 | 1.0 | 3.0 | 0.00 | 0.00 | 0.00 | 92 | 1012.8 |
| 20260830135634 | 70 | 92 | 0.0 | 2.0 | 0.00 | 0.00 | 0.00 | 94 | 1012.8 |
| 20260830135128 | 69 | 120 | 0.0 | 1.0 | 0.00 | 0.00 | 0.00 | 94 | 1012.9 |
| 20260830134625 | 69 | 333 | 3.0 | 5.0 | 0.00 | 0.00 | 0.00 | 95 | 1012.7 |
| 20260830134120 | 69 | 141 | 0.0 | 1.0 | 0.00 | 0.00 | 0.00 | 95 | 1012.7 |
| 20260830133615 | 68 | 259 | 1.0 | 5.0 | 0.00 | 0.00 | 0.00 | 96 | 1012.5 |
| 20260830133110 | 68 | 353 | 0.0 | 3.0 | 0.00 | 0.00 | 0.00 | 96 | 1012.4 |
| 20260830132607 | 68 | 43 | 2.0 | 2.0 | 0.00 | 0.00 | 0.00 | 97 | 1012.6 |
| 20260830132102 | 68 | 126 | 0.0 | 1.0 | 0.00 | 0.00 | 0.00 | 97 | 1012.6 |
| 20260830131601 | 67 | 58 | 1.0 | 5.0 | 0.00 | 0.00 | 0.00 | 98 | 1012.6 |
| 20260830131055 | 67 | 152 | 0.0 | 1.0 | 0.00 | 0.00 | 0.00 | 98 | 1012.9 |
| 20260830130550 | 67 | 114 | 1.0 | 3.0 | 0.00 | 0.00 | 0.00 | 98 | 1012.8 |
| 20260830130046 | 67 | 90 | 0.0 | 2.0 | 0.00 | 0.00 | 0.00 | 98 | 1012.8 |
| 20260830125540 | 67 | 59 | 1.0 | 5.0 | 0.00 | 0.00 | 0.00 | 98 | 1012.7 |
| 20260830125039 | 67 | 111 | 0.0 | 0.0 | 0.00 | 0.00 | 0.00 | 99 | 1013.1 |
| 20260830124538 | 67 | 258 | 1.0 | 6.0 | 0.00 | 0.00 | 0.00 | 99 | 1013.0 |
| 20260830124034 | 67 | 108 | 0.0 | 2.0 | 0.00 | 0.00 | 0.00 | 99 | 1012.8 |
| 20260830123531 | 67 | 137 | 1.0 | 2.0 | 0.00 | 0.00 | 0.00 | 99 | 1012.7 |
| 20260830123026 | 67 | 121 | 0.0 | 0.0 | 0.00 | 0.00 | 0.00 | 99 | 1012.4 |
| 20260830122522 | 66 | 82 | 0.0 | 0.0 | 0.00 | 0.00 | 0.00 | 99 | 1012.5 |
| 20260830122018 | 66 | 110 | 0.0 | 1.0 | 0.00 | 0.00 | 0.00 | 99 | 1012.7 |
| 20260830121514 | 66 | 103 | 0.0 | 2.0 | 0.00 | 0.00 | 0.00 | 99 | 1012.5 |
| 20260830121013 | 66 | 90 | 0.0 | 0.0 | 0.00 | 0.00 | 0.00 | 99 | 1012.5 |
| 20260830120509 | 66 | 35 | 0.0 | 2.0 | 0.00 | 0.00 | 0.00 | 99 | 1012.2 |
| 20260830120006 | 66 | 112 | 0.0 | 2.0 | 0.00 | 0.00 | 0.00 | 99 | 1012.4 |
| 20260830115501 | 66 | 23 | 0.0 | 3.0 | 0.00 | 0.00 | 0.00 | 99 | 1012.1 |
| 20260830114956 | 66 | 19 | 1.0 | 3.0 | 0.00 | 0.00 | 0.00 | 99 | 1012.1 |
| 20260830114453 | 66 | 99 | 0.0 | 0.0 | 0.00 | 0.00 | 0.00 | 99 | 1012.2 |
| 20260830113952 | 66 | 70 | 1.0 | 2.0 | 0.00 | 0.00 | 0.00 | 99 | 1012.2 |
| 20260830113447 | 66 | 22 | 0.0 | 0.0 | 0.00 | 0.00 | 0.00 | 99 | 1012.2 |
| 20260830112943 | 66 | 90 | 0.0 | 1.0 | 0.00 | 0.00 | 0.00 | 99 | 1012.4 |
| 20260830112439 | 66 | 104 | 0.0 | 0.0 | 0.00 | 0.00 | 0.00 | 99 | 1012.4 |
| 20260830111935 | 66 | 135 | 0.0 | 1.0 | 0.00 | 0.00 | 0.00 | 99 | 1012.2 |
| 20260830111430 | 66 | 50 | 1.0 | 3.0 | 0.00 | 0.00 | 0.00 | 99 | 1012.1 |
| 20260830110926 | 66 | 76 | 0.0 | 0.0 | 0.00 | 0.00 | 0.00 | 99 | 1012.4 |
| 20260830110421 | 66 | 87 | 0.0 | 1.0 | 0.00 | 0.00 | 0.00 | 98 | 1012.6 |
| 20260830105920 | 66 | 101 | 0.0 | 0.0 | 0.00 | 0.00 | 0.00 | 98 | 1012.6 |
| 20260830105417 | 66 | 84 | 0.0 | 0.0 | 0.00 | 0.00 | 0.00 | 98 | 1012.6 |
| 20260830104913 | 66 | 80 | 0.0 | 1.0 | 0.00 | 0.00 | 0.00 | 98 | 1012.6 |
| 20260830104409 | 66 | 0 | 0.0 | 1.0 | 0.00 | 0.00 | 0.00 | 98 | 1012.3 |
| 20260830103908 | 66 | 75 | 0.0 | 0.0 | 0.00 | 0.00 | 0.00 | 98 | 1012.5 |
| 20260830103404 | 66 | 78 | 0.0 | 1.0 | 0.00 | 0.00 | 0.00 | 98 | 1012.8 |
| 20260830102902 | 66 | 91 | 0.0 | 2.0 | 0.00 | 0.00 | 0.00 | 98 | 1012.7 |
| 20260830102358 | 66 | 106 | 0.0 | 0.0 | 0.00 | 0.00 | 0.00 | 98 | 1012.6 |
| 20260830101854 | 66 | 104 | 0.0 | 2.0 | 0.00 | 0.00 | 0.00 | 98 | 1012.5 |
| 20260830101349 | 66 | 52 | 0.0 | 0.0 | 0.00 | 0.00 | 0.00 | 98 | 1012.5 |
| 20260830100848 | 66 | 79 | 0.0 | 1.0 | 0.00 | 0.00 | 0.00 | 98 | 1012.3 |
| 20260830100348 | 66 | 105 | 0.0 | 0.0 | 0.00 | 0.00 | 0.00 | 98 | 1012.2 |
| 20260830095847 | 66 | 32 | 1.0 | 2.0 | 0.00 | 0.00 | 0.00 | 98 | 1012.2 |
| 20260830095343 | 66 | 109 | 0.0 | 1.0 | 0.00 | 0.00 | 0.00 | 98 | 1011.8 |
| 20260830094838 | 67 | 99 | 0.0 | 3.0 | 0.00 | 0.00 | 0.00 | 97 | 1012.1 |
| 20260830094335 | 67 | 93 | 0.0 | 0.0 | 0.00 | 0.00 | 0.00 | 97 | 1012.0 |
| 20260830093830 | 67 | 100 | 0.0 | 0.0 | 0.00 | 0.00 | 0.00 | 97 | 1012.2 |
| 20260830093325 | 67 | 111 | 0.0 | 1.0 | 0.00 | 0.00 | 0.00 | 97 | 1012.2 |
| 20260830092820 | 67 | 97 | 0.0 | 2.0 | 0.00 | 0.00 | 0.00 | 97 | 1012.5 |
| 20260830092316 | 67 | 97 | 0.0 | 2.0 | 0.00 | 0.00 | 0.00 | 97 | 1012.6 |
| 20260830091813 | 67 | 66 | 0.0 | 2.0 | 0.00 | 0.00 | 0.00 | 97 | 1012.7 |
| 20260830091312 | 67 | 79 | 0.0 | 1.0 | 0.00 | 0.00 | 0.00 | 97 | 1012.2 |
| 20260830090811 | 67 | 78 | 0.0 | 2.0 | 0.00 | 0.00 | 0.00 | 97 | 1012.3 |
| 20260830090307 | 67 | 64 | 0.0 | 2.0 | 0.00 | 0.00 | 0.00 | 97 | 1012.2 |
| 20260830085806 | 67 | 102 | 0.0 | 1.0 | 0.00 | 0.00 | 0.00 | 96 | 1012.4 |
| 20260830085302 | 67 | 90 | 0.0 | 1.0 | 0.00 | 0.00 | 0.00 | 96 | 1012.5 |
| 20260830084757 | 67 | 74 | 0.0 | 0.0 | 0.00 | 0.00 | 0.00 | 96 | 1012.5 |
| 20260830084253 | 67 | 102 | 0.0 | 0.0 | 0.00 | 0.00 | 0.00 | 96 | 1012.5 |
| 20260830083747 | 67 | 102 | 0.0 | 1.0 | 0.00 | 0.00 | 0.00 | 96 | 1012.7 |
| 20260830083244 | 67 | 62 | 0.0 | 1.0 | 0.00 | 0.00 | 0.00 | 96 | 1012.6 |
| 20260830082743 | 67 | 36 | 1.0 | 3.0 | 0.00 | 0.00 | 0.00 | 96 | 1012.2 |
| 20260830082238 | 68 | 90 | 0.0 | 2.0 | 0.00 | 0.00 | 0.00 | 96 | 1012.3 |
| 20260830081733 | 68 | 87 | 0.0 | 1.0 | 0.00 | 0.00 | 0.00 | 95 | 1012.2 |
| 20260830081228 | 68 | 53 | 0.0 | 2.0 | 0.00 | 0.00 | 0.00 | 95 | 1012.5 |
| 20260830080722 | 68 | 347 | 0.0 | 1.0 | 0.00 | 0.00 | 0.00 | 95 | 1012.6 |
| 20260830080218 | 68 | 102 | 0.0 | 1.0 | 0.00 | 0.00 | 0.00 | 95 | 1012.8 |
| 20260830075717 | 68 | 85 | 0.0 | 5.0 | 0.00 | 0.00 | 0.00 | 95 | 1012.9 |
| 20260830075213 | 68 | 89 | 0.0 | 0.0 | 0.00 | 0.00 | 0.00 | 95 | 1012.8 |
| 20260830074708 | 68 | 7 | 0.0 | 2.0 | 0.00 | 0.00 | 0.00 | 95 | 1013.0 |
| 20260830074204 | 68 | 139 | 0.0 | 2.0 | 0.00 | 0.00 | 0.00 | 95 | 1012.6 |
| 20260830073700 | 68 | 95 | 0.0 | 2.0 | 0.00 | 0.00 | 0.00 | 95 | 1012.6 |
| 20260830073156 | 68 | 103 | 0.0 | 0.0 | 0.00 | 0.00 | 0.00 | 95 | 1012.8 |